User: anonymous   Login
Location: ActonStarParty
(42.4766°N, 71.4538°W)
Time: 10:28:12
(UTC-04:00)
Language:

ITAMSAT 1 - Orbit

View from above orbital plane
View from above orbital plane
View from above satellite
View from above satellite

Ground track
Ground track

The orbit data is extracted from the following two-line orbital elements,

1 22826U 93061D   16146.46369849  .00000026  00000-0  27496-4 0  9996
2 22826  98.7518 102.6986 0009401  22.5056 337.6537 14.30280088182151
Epoch (UTC): 25 May 2016 11:07:43
Eccentricity: 0.0009401
inclination: 98.7518°
perigee height: 784 km
apogee height: 797 km
right ascension of ascending node: 102.6986°
argument of perigee: 22.5056°
revolutions per day: 14.30280088
mean anomaly at epoch: 337.6537°
orbit number at epoch: 18215

The dashed part of the orbit path shows where the satellite is in the earth's shadow,  

DLR